Flag for Iran Weather past 2 weeks in Mashhad, Iran

46 °F

Passing clouds.

Feels Like: 43 °F
Forecast: 30 / 54 °F
Wind: 7 mph from South

Location: Mashhad Airport

Current Time: Nov 28, 2015 at 7:00:09 AM

Latest Report: Nov 28, 2015 at 6:30 AM

Visibility: N/A

Pressure: 30.04 "Hg (26.66 "Hg at 981m altitude)

Humidity: 32%

Dew point: 18 °F

Location of MashhadLocation

Historic Weather in Mashhad — Graph


Mashhad temperature yesterday

Maximum temperature yesterday: 68 °F (at 3:00 PM)
Minimum temperature yesterday: 36 °F (at 4:00 AM)
Average temperature yesterday: 50 °F

Past Weeks' High & Low Weather Summary

High70 °F (Nov 17, 1:30 PM)100% (Nov 19, 3:00 AM)30.39 "Hg (Nov 19, 3:00 AM)
Low34 °F (Nov 16, 5:00 AM)10% (Nov 27, 3:00 PM)29.89 "Hg (Nov 14, 1:00 PM)
Average47 °F64%30.15 "Hg
* Reported Nov 13 5:30 AM — Nov 28 5:30 AM, Mashhad, Weather by CustomWeather, © 2015

Note: Actual official high and low records may vary slightly from our data, if they occured in-between our weather recording intervals... More about our weather records


Mashhad weather history for previous 24 hours

Time TempWeatherWind HumidityBarometerVisibility
5:30 AM
Sat, Nov 28
50 °FPassing clouds.12 mph28%30.04 "HgN/A
5:00 AM45 °FPassing clouds.5 mph42%30.04 "HgN/A
4:30 AM45 °FPassing clouds.7 mph49%30.04 "HgN/A
4:00 AM41 °FClear.5 mph53%30.04 "Hg10 mi
3:30 AM46 °FClear.5 mph34%30.01 "Hg10 mi
3:00 AM46 °FClear.7 mph34%30.01 "Hg10 mi
2:30 AM46 °FClear.5 mph34%30.04 "Hg10 mi
2:00 AM46 °FClear.No wind34%30.04 "Hg10 mi
1:30 AM46 °FClear.No wind37%30.04 "Hg10 mi
1:00 AM50 °FClear.5 mph28%30.04 "Hg10 mi
12:30 AM50 °FClear.7 mph28%30.04 "Hg10 mi
12:00 AM48 °FClear.7 mph32%30.04 "Hg10 mi
11:30 PM
Fri, Nov 27
46 °FClear.5 mph37%30.04 "Hg10 mi
11:00 PM46 °FClear.7 mph37%30.04 "Hg10 mi
10:30 PM45 °FClear.5 mph39%30.04 "Hg10 mi
10:00 PM45 °FClear.7 mph39%30.04 "Hg10 mi
9:30 PM46 °FClear.5 mph34%30.04 "Hg10 mi
9:00 PM48 °FClear.5 mph32%30.04 "Hg10 mi
8:30 PM46 °FClear.5 mph34%30.04 "Hg10 mi
8:00 PM46 °FClear.5 mph40%30.04 "Hg10 mi
7:30 PM48 °FClear.5 mph34%30.04 "Hg10 mi
7:00 PM48 °FClear.7 mph34%30.04 "Hg10 mi
6:30 PM50 °FClear.5 mph32%30.04 "Hg10 mi
6:00 PM52 °FClear.5 mph28%30.04 "Hg10 mi
5:30 PM54 °FClear.7 mph26%30.01 "Hg10 mi
5:00 PM55 °FClear.5 mph26%30.01 "Hg10 mi
4:30 PM59 °FSunny.5 mph21%30.01 "Hg10 mi
4:00 PM63 °FSunny.5 mph15%30.01 "Hg10 mi
3:30 PM64 °FSunny.9 mph13%30.01 "Hg10 mi
3:00 PM68 °FSunny.7 mph10%30.01 "Hg10 mi
2:30 PM66 °FSunny.5 mph11%30.01 "Hg10 mi
2:00 PM64 °FBroken clouds.No wind13%30.01 "HgN/A
1:30 PM63 °FBroken clouds.5 mph15%30.01 "HgN/A
1:00 PM63 °FSunny.5 mph15%30.04 "Hg10 mi
12:30 PM63 °FSunny.No wind17%30.04 "Hg10 mi
12:00 PM61 °FSunny.5 mph17%30.07 "Hg10 mi
11:30 AM59 °FSunny.No wind17%30.07 "Hg10 mi
10:00 AM59 °FSunny.5 mph21%30.12 "Hg10 mi
9:30 AM55 °FSunny.7 mph24%30.12 "Hg10 mi
9:00 AM54 °FSunny.No wind28%30.12 "Hg10 mi
8:30 AM48 °FSunny.5 mph37%30.12 "Hg10 mi
8:00 AM46 °FSunny.No wind43%30.12 "Hg10 mi
7:30 AM45 °FSunny.5 mph42%30.12 "Hg10 mi
Weather by CustomWeather, © 2015

See weather overviewHow to use our weather pages